Radiation Dose at Monitoring Post of Fukushima Daini Nuclear Power Station
Date,Time,MP-1(microSv/h),MP-2(microSv/h),MP-3(microSv/h),MP-4(microSv/h),MP-5(microSv/h),MP-6(microSv/h),MP-7(microSv/h),Wind Direction,Wind Velocity(m/s),Rain
2023/07/31,00:00,0.154,0.140,0.225,0.214,0.214,0.123,0.079,southwest,4.1,No
2023/07/31,00:10,0.153,0.140,0.228,0.214,0.217,0.121,0.079,southwest,2.3,No
2023/07/31,00:20,0.154,0.142,0.228,0.213,0.218,0.122,0.078,west-southwest,2.3,No
2023/07/31,00:30,0.155,0.142,0.226,0.213,0.215,0.123,0.078,southwest,2.6,No
2023/07/31,00:40,0.153,0.140,0.224,0.216,0.215,0.123,0.079,southwest,3.0,No
2023/07/31,00:50,0.152,0.140,0.224,0.215,0.214,0.123,0.079,southwest,4.2,No
2023/07/31,01:00,0.151,0.140,0.228,0.215,0.212,0.122,0.079,southwest,2.8,No
2023/07/31,01:10,0.153,0.141,0.228,0.213,0.214,0.122,0.077,south-southwest,2.1,No
2023/07/31,01:20,-,-,-,-,-,-,-,-,-,-
2023/07/31,01:30,0.153,0.140,0.225,0.216,0.219,0.123,0.078,southwest,3.0,No
2023/07/31,01:40,0.151,0.140,0.225,0.215,0.216,0.122,0.078,southwest,3.4,No
2023/07/31,01:50,0.153,0.142,0.227,0.213,0.214,0.123,0.078,southwest,3.3,No
2023/07/31,02:00,0.154,0.141,0.227,0.213,0.213,0.123,0.078,southwest,2.9,No
2023/07/31,02:10,0.153,0.140,0.225,0.214,0.213,0.123,0.078,southwest,2.7,No
2023/07/31,02:20,0.152,0.140,0.225,0.216,0.215,0.123,0.078,southwest,2.6,No
2023/07/31,02:30,0.152,0.141,0.224,0.214,0.217,0.122,0.078,southwest,2.5,No
2023/07/31,02:40,0.154,0.141,0.228,0.213,0.217,0.123,0.078,south-southwest,4.0,No
2023/07/31,02:50,0.154,0.140,0.226,0.213,0.214,0.122,0.078,south-southwest,4.0,No
2023/07/31,03:00,0.152,0.140,0.225,0.215,0.214,0.122,0.078,south-southwest,4.5,No
2023/07/31,03:10,0.151,0.141,0.224,0.215,0.212,0.121,0.078,southwest,3.8,No
2023/07/31,03:20,0.153,0.140,0.228,0.214,0.216,0.123,0.078,southwest,3.0,No
2023/07/31,03:30,0.154,0.140,0.228,0.213,0.217,0.123,0.077,southwest,1.9,No
2023/07/31,03:40,0.153,0.141,0.226,0.215,0.216,0.122,0.078,southwest,1.2,No
2023/07/31,03:50,0.153,0.143,0.226,0.216,0.214,0.121,0.078,west,1.5,No
2023/07/31,04:00,0.154,0.141,0.228,0.215,0.213,0.123,0.078,west-northwest,1.6,No
2023/07/31,04:10,0.154,0.140,0.225,0.212,0.216,0.124,0.078,northwest,0.9,No
2023/07/31,04:20,0.152,0.142,0.226,0.215,0.217,0.123,0.079,west-northwest,0.9,No
2023/07/31,04:30,0.152,0.141,0.226,0.216,0.216,0.122,0.079,west-northwest,0.8,No
2023/07/31,04:40,0.155,0.139,0.228,0.215,0.214,0.124,0.078,north-northwest,0.8,No
2023/07/31,04:50,0.154,0.141,0.226,0.212,0.215,0.123,0.079,-,CALM,No
2023/07/31,05:00,0.153,0.141,0.225,0.216,0.217,0.123,0.079,south,0.6,No
2023/07/31,05:10,0.153,0.142,0.228,0.215,0.216,0.122,0.079,south,0.8,No
2023/07/31,05:20,0.155,0.140,0.228,0.213,0.213,0.124,0.078,south-southwest,0.8,No
2023/07/31,05:30,0.153,0.142,0.226,0.212,0.213,0.123,0.078,south,1.6,No
2023/07/31,05:40,0.152,0.142,0.225,0.216,0.217,0.122,0.078,south-southwest,1.5,Yes
2023/07/31,05:50,0.152,0.140,0.228,0.216,0.217,0.123,0.079,south-southwest,2.3,No
2023/07/31,06:00,0.155,0.141,0.227,0.215,0.215,0.124,0.079,south,1.6,No
2023/07/31,06:10,0.154,0.140,0.226,0.214,0.213,0.122,0.078,south-southeast,1.6,No
2023/07/31,06:20,0.154,0.140,0.224,0.214,0.214,0.122,0.078,south,1.3,No
2023/07/31,06:30,0.153,0.140,0.228,0.216,0.214,0.123,0.078,south,0.8,No
2023/07/31,06:40,0.152,0.141,0.228,0.216,0.214,0.124,0.079,-,CALM,No
2023/07/31,06:50,0.154,0.144,0.227,0.214,0.214,0.124,0.078,-,CALM,No
2023/07/31,07:00,0.153,0.142,0.227,0.214,0.214,0.123,0.079,-,CALM,No
2023/07/31,07:10,0.154,0.140,0.223,0.215,0.214,0.122,0.079,east-southeast,0.7,No
2023/07/31,07:20,0.153,0.141,0.224,0.214,0.215,0.123,0.078,east-southeast,0.7,No
2023/07/31,07:30,0.152,0.140,0.226,0.213,0.213,0.123,0.078,-,CALM,No
2023/07/31,07:40,0.153,0.141,0.227,0.214,0.214,0.122,0.079,-,CALM,No
2023/07/31,07:50,0.153,0.141,0.227,0.214,0.214,0.122,0.079,north-northeast,1.0,No
2023/07/31,08:00,0.152,0.142,0.226,0.215,0.215,0.122,0.079,north,0.9,No
2023/07/31,08:10,0.153,0.141,0.228,0.215,0.216,0.122,0.078,north-northeast,1.6,No
2023/07/31,08:20,0.153,0.140,0.227,0.216,0.216,0.122,0.079,north-northeast,1.5,No
2023/07/31,08:30,0.153,0.141,0.228,0.215,0.216,0.122,0.079,north,1.4,No
2023/07/31,08:40,0.154,0.141,0.228,0.216,0.217,0.123,0.079,north,1.3,No
2023/07/31,08:50,0.154,0.141,0.228,0.216,0.218,0.124,0.079,north,0.9,No
2023/07/31,09:00,0.154,0.141,0.228,0.217,0.217,0.123,0.079,north-northeast,1.1,No
2023/07/31,09:10,0.154,0.140,0.227,0.216,0.217,0.123,0.079,northeast,1.5,No
2023/07/31,09:20,0.155,0.141,0.229,0.218,0.218,0.123,0.079,northeast,1.3,No
2023/07/31,09:30,0.154,0.141,0.227,0.216,0.217,0.122,0.079,east-northeast,2.0,No
2023/07/31,09:40,0.154,0.142,0.228,0.217,0.216,0.124,0.079,east,2.9,No
2023/07/31,09:50,0.154,0.141,0.227,0.216,0.215,0.124,0.079,east,2.8,No
2023/07/31,10:00,0.155,0.143,0.228,0.217,0.217,0.124,0.078,east-southeast,2.8,No
2023/07/31,10:10,0.154,0.142,0.227,0.217,0.216,0.124,0.079,east,2.6,No
2023/07/31,10:20,0.153,0.142,0.227,0.216,0.216,0.123,0.079,east,2.4,No
2023/07/31,10:30,0.153,0.141,0.227,0.217,0.217,0.123,0.079,east,2.4,No
2023/07/31,10:40,0.153,0.142,0.226,0.216,0.215,0.123,0.079,east,2.2,No
2023/07/31,10:50,0.153,0.141,0.226,0.218,0.214,0.123,0.079,east-southeast,2.4,No
2023/07/31,11:00,0.152,0.141,0.226,0.217,0.215,0.124,0.078,southeast,2.5,No
2023/07/31,11:10,0.153,0.141,0.226,0.216,0.214,0.122,0.078,south-southeast,2.4,No
2023/07/31,11:20,0.153,0.141,0.227,0.216,0.215,0.123,0.079,south-southeast,2.7,No
2023/07/31,11:30,0.153,0.142,0.228,0.216,0.214,0.123,0.078,south-southeast,3.6,No
2023/07/31,11:40,0.153,0.142,0.226,0.217,0.214,0.122,0.078,south-southeast,3.9,No
2023/07/31,11:50,0.153,0.141,0.228,0.215,0.215,0.122,0.078,south-southeast,3.6,No
2023/07/31,12:00,0.154,0.141,0.226,0.215,0.213,0.122,0.078,south,3.3,No
2023/07/31,12:10,0.153,0.140,0.226,0.214,0.212,0.121,0.078,south,4.1,No
2023/07/31,12:20,0.153,0.141,0.226,0.216,0.213,0.121,0.079,south-southeast,3.7,No
2023/07/31,12:30,0.154,0.141,0.227,0.215,0.213,0.123,0.078,south,4.2,No
2023/07/31,12:40,0.154,0.142,0.228,0.216,0.215,0.123,0.078,south-southeast,4.0,No
2023/07/31,12:50,0.154,0.141,0.227,0.217,0.214,0.123,0.078,south-southeast,3.6,No
2023/07/31,13:00,0.154,0.141,0.227,0.216,0.215,0.124,0.078,south-southeast,3.5,No
2023/07/31,13:10,0.153,0.141,0.227,0.217,0.214,0.124,0.078,south-southeast,4.2,No
2023/07/31,13:20,0.152,0.141,0.227,0.216,0.214,0.123,0.078,south-southeast,4.6,No
2023/07/31,13:30,0.153,0.140,0.226,0.217,0.213,0.122,0.078,south-southeast,5.1,No
2023/07/31,13:40,0.152,0.141,0.226,0.216,0.213,0.123,0.078,south-southeast,5.0,No
2023/07/31,13:50,0.154,0.142,0.227,0.216,0.213,0.122,0.078,south,4.8,No
2023/07/31,14:00,0.153,0.142,0.226,0.216,0.213,0.122,0.078,south,5.2,No
2023/07/31,14:10,0.153,0.140,0.227,0.215,0.215,0.122,0.078,south,4.3,No
2023/07/31,14:20,0.152,0.141,0.226,0.215,0.214,0.123,0.078,south,4.7,No
2023/07/31,14:30,0.152,0.139,0.225,0.214,0.212,0.123,0.077,south-southeast,4.6,No
2023/07/31,14:40,0.153,0.140,0.224,0.214,0.212,0.122,0.077,south-southeast,5.7,No
2023/07/31,14:50,0.151,0.139,0.224,0.212,0.212,0.121,0.077,south,6.8,No
2023/07/31,15:00,0.151,0.138,0.224,0.212,0.212,0.121,0.077,south,5.7,No
2023/07/31,15:10,0.152,0.139,0.224,0.211,0.213,0.121,0.077,south,5.0,No
2023/07/31,15:20,0.152,0.140,0.225,0.213,0.213,0.122,0.077,south,4.9,No
2023/07/31,15:30,0.152,0.139,0.225,0.213,0.212,0.122,0.078,south,4.8,No
2023/07/31,15:40,0.152,0.141,0.226,0.213,0.214,0.122,0.078,south,5.5,No
2023/07/31,15:50,0.153,0.140,0.225,0.213,0.212,0.122,0.078,south,4.7,No
2023/07/31,16:00,0.153,0.140,0.226,0.214,0.214,0.122,0.078,south,4.2,No
2023/07/31,16:10,0.153,0.141,0.227,0.214,0.214,0.122,0.077,south,3.4,No
2023/07/31,16:20,0.153,0.140,0.226,0.215,0.215,0.122,0.078,south,3.9,No
2023/07/31,16:30,0.153,0.140,0.227,0.215,0.216,0.123,0.078,south,4.6,No
2023/07/31,16:40,0.152,0.141,0.225,0.214,0.215,0.122,0.078,south,5.2,No
2023/07/31,16:50,0.152,0.141,0.225,0.214,0.215,0.123,0.078,south,4.3,Yes
2023/07/31,17:00,0.152,0.140,0.226,0.214,0.214,0.122,0.077,south,5.3,No
2023/07/31,17:10,0.152,0.140,0.227,0.214,0.215,0.122,0.078,south,5.3,No
2023/07/31,17:20,0.152,0.140,0.225,0.214,0.214,0.122,0.077,south,5.3,No
2023/07/31,17:30,0.152,0.140,0.225,0.213,0.214,0.122,0.077,south,5.0,No
2023/07/31,17:40,0.152,0.140,0.226,0.213,0.213,0.122,0.077,south-southwest,5.3,No
2023/07/31,17:50,0.152,0.140,0.225,0.212,0.214,0.122,0.077,south,4.5,No
2023/07/31,18:00,0.151,0.140,0.225,0.214,0.214,0.123,0.077,south-southwest,4.8,No
2023/07/31,18:10,0.151,0.140,0.226,0.215,0.212,0.123,0.077,south-southwest,4.0,No
2023/07/31,18:20,0.152,0.139,0.224,0.213,0.213,0.122,0.077,south,2.9,No
2023/07/31,18:30,0.151,0.139,0.226,0.213,0.213,0.123,0.077,south,3.0,No
2023/07/31,18:40,0.151,0.139,0.227,0.214,0.214,0.123,0.077,south,3.5,No
2023/07/31,18:50,0.152,0.140,0.225,0.214,0.214,0.124,0.078,south,1.9,No
2023/07/31,19:00,0.152,0.140,0.225,0.213,0.214,0.123,0.078,south-southwest,2.0,No
2023/07/31,19:10,0.154,0.140,0.225,0.215,0.214,0.123,0.080,south-southwest,1.9,No
2023/07/31,19:20,0.155,0.142,0.226,0.218,0.215,0.123,0.078,southwest,1.8,No
2023/07/31,19:30,0.153,0.142,0.226,0.217,0.214,0.123,0.078,southwest,1.9,Yes
2023/07/31,19:40,0.152,0.141,0.230,0.216,0.214,0.123,0.078,southwest,0.8,No
2023/07/31,19:50,0.153,0.140,0.229,0.216,0.215,0.124,0.078,west-southwest,1.5,Yes
2023/07/31,20:00,0.152,0.140,0.228,0.215,0.218,0.124,0.079,west-southwest,1.9,No
2023/07/31,20:10,0.152,0.140,0.227,0.214,0.219,0.123,0.080,west-southwest,2.7,No
2023/07/31,20:20,0.155,0.142,0.226,0.215,0.215,0.124,0.080,southwest,3.0,No
2023/07/31,20:30,0.155,0.142,0.225,0.219,0.216,0.123,0.079,southwest,3.9,No
2023/07/31,20:40,0.155,0.142,0.226,0.217,0.215,0.123,0.079,west-southwest,3.0,No
2023/07/31,20:50,0.153,0.141,0.229,0.215,0.215,0.124,0.079,west-northwest,3.5,No
2023/07/31,21:00,0.153,0.141,0.231,0.215,0.215,0.124,0.078,northwest,4.5,No
2023/07/31,21:10,0.152,0.140,0.228,0.214,0.214,0.124,0.080,northwest,5.2,No
2023/07/31,21:20,0.152,0.139,0.227,0.214,0.216,0.123,0.079,northwest,4.3,No
2023/07/31,21:30,0.153,0.140,0.226,0.216,0.218,0.124,0.079,northwest,3.9,No
2023/07/31,21:40,0.155,0.142,0.226,0.218,0.218,0.123,0.079,north-northwest,1.3,No
2023/07/31,21:50,0.154,0.142,0.225,0.218,0.216,0.124,0.078,-,CALM,No
2023/07/31,22:00,-,-,-,-,-,-,-,-,-,-
2023/07/31,22:10,0.153,0.141,0.229,0.215,0.214,0.124,0.079,-,CALM,No
2023/07/31,22:20,0.152,0.141,0.229,0.213,0.214,0.123,0.080,-,CALM,No
2023/07/31,22:30,0.152,0.141,0.228,0.215,0.214,0.124,0.079,-,CALM,No
2023/07/31,22:40,0.155,0.143,0.226,0.217,0.216,0.124,0.078,-,CALM,No
2023/07/31,22:50,0.156,0.142,0.226,0.217,0.218,0.123,0.078,-,CALM,No
2023/07/31,23:00,0.155,0.141,0.227,0.217,0.217,0.123,0.078,-,CALM,No
2023/07/31,23:10,0.153,0.140,0.230,0.215,0.216,0.123,0.079,north,0.6,Yes
2023/07/31,23:20,0.153,0.140,0.230,0.213,0.216,0.124,0.080,north,1.0,Yes
2023/07/31,23:30,0.154,0.143,0.229,0.216,0.215,0.125,0.079,north,1.0,No
2023/07/31,23:40,0.155,0.142,0.227,0.218,0.215,0.124,0.079,north-northwest,1.1,Yes
2023/07/31,23:50,0.155,0.142,0.227,0.217,0.219,0.124,0.080,north-northwest,3.4,Yes
